DW2201 Weather Reports


Display with metric or nautical units.
time (UTC)temp
F
wind
direction
speed
MPH
gust
MPH
rain 1hr
in
rain 24hr
in
rain mn
in
humidity
%
barometer
mb
20220526111508 62 38 2.0 5.0 0.00 0.13 0.03 97 1023.4
20220526110005 62 43 2.0 6.0 0.00 0.14 0.03 97 1023.5
20220526104504 62 44 2.0 9.0 0.00 0.14 0.03 97 1023.5
20220526103010 62 13 5.0 10.0 0.00 0.14 0.03 97 1023.3
20220526101502 61 86 5.0 9.0 0.00 0.14 0.03 97 1023.2
20220526100002 61 57 3.0 9.0 0.00 0.14 0.03 97 1023.0
20220526094501 61 40 5.0 11.0 0.01 0.14 0.03 97 1022.8
20220526093100 61 67 7.0 11.0 0.01 0.14 0.03 97 1022.8
20220526091601 61 82 5.0 11.0 0.01 0.14 0.03 97 1022.9
20220526090103 61 76 4.0 9.0 0.02 0.14 0.03 97 1022.8
20220526084557 61 51 4.0 8.0 0.01 0.14 0.02 97 1022.9
20220526083058 61 22 4.0 9.0 0.01 0.14 0.02 97 1023.0
20220526081555 61 61 4.0 10.0 0.01 0.14 0.02 97 1023.1
20220526080124 61 61 5.0 10.0 0.00 0.13 0.01 97 1023.1
20220526074553 61 61 5.0 11.0 0.00 0.13 0.01 97 1023.2
20220526073052 60 34 3.0 10.0 0.00 0.13 0.01 96 1023.1
20220526071555 60 36 3.0 9.0 0.00 0.13 0.01 96 1023.2
20220526070049 60 76 3.0 7.0 0.00 0.13 0.01 96 1023.4
20220526064553 60 30 5.0 9.0 0.00 0.13 0.01 96 1023.3
20220526063050 60 57 4.0 12.0 0.00 0.13 0.01 96 1023.3
20220526061550 60 76 6.0 10.0 0.00 0.13 0.01 96 1023.2
20220526060044 60 63 6.0 12.0 0.00 0.13 0.01 96 1023.5
20220526054542 60 62 6.0 10.0 0.00 0.13 0.01 96 1023.8
20220526053056 60 335 5.0 14.0 0.00 0.13 0.01 96 1023.9
20220526051539 60 61 5.0 11.0 0.00 0.13 0.01 97 1024.0
20220526050037 60 56 4.0 10.0 0.01 0.13 0.01 97 1024.1
20220526044538 60 57 5.0 12.0 0.01 0.13 0.01 97 1024.2
20220526043032 60 5 4.0 11.0 0.01 0.13 0.01 97 1024.5
20220526041534 59 48 4.0 9.0 0.01 0.13 0.01 97 1024.5
20220526040027 59 67 5.0 9.0 0.00 0.12 0.00 96 1024.6
20220526034527 59 24 3.0 8.0 0.00 0.12 0.12 96 1024.8
20220526033039 59 360 4.0 10.0 0.00 0.12 0.12 96 1025.0
20220526031526 59 30 5.0 12.0 0.00 0.12 0.12 96 1024.9
20220526030025 59 77 8.0 13.0 0.00 0.12 0.12 96 1024.8
20220526024525 59 57 8.0 14.0 0.00 0.12 0.12 96 1024.6
20220526023027 59 55 9.0 14.0 0.00 0.12 0.12 96 1024.7
20220526021524 59 57 8.0 12.0 0.00 0.12 0.12 96 1024.9
20220526020023 59 59 7.0 13.0 0.00 0.12 0.12 96 1025.0
20220526014523 59 67 7.0 12.0 0.00 0.18 0.12 96 1025.0
20220526013024 59 37 5.0 12.0 0.00 0.18 0.12 96 1024.9
20220526011522 59 76 10.0 15.0 0.00 0.18 0.12 96 1025.1
20220526010029 59 55 8.0 14.0 0.00 0.18 0.12 96 1024.9
20220526004522 59 53 7.0 14.0 0.00 0.23 0.12 96 1024.9
20220526003033 59 51 8.0 16.0 0.00 0.23 0.12 96 1024.9
20220526001520 59 126 4.0 11.0 0.00 0.23 0.12 96 1025.0
20220526000137 59 44 7.0 14.0 0.00 0.23 0.12 96 1024.9
20220525234524 59 61 5.0 14.0 0.00 0.23 0.12 96 1024.8
20220525233019 59 59 7.0 16.0 0.01 0.23 0.12 96 1024.8
20220525231517 59 58 8.0 15.0 0.01 0.23 0.12 96 1024.7
20220525230016 59 56 7.0 14.0 0.02 0.23 0.12 96 1024.6
20220525224516 59 70 8.0 14.0 0.03 0.23 0.12 96 1024.5
20220525223016 59 355 6.0 12.0 0.03 0.22 0.11 96 1024.5
20220525221515 59 57 5.0 14.0 0.03 0.22 0.11 96 1024.6
20220525220014 60 53 5.0 17.0 0.03 0.21 0.10 96 1024.6
20220525214513 60 55 8.0 13.0 0.03 0.20 0.09 96 1024.7
20220525213022 60 35 5.0 11.0 0.03 0.19 0.08 96 1024.4
20220525211513 60 60 6.0 11.0 0.03 0.19 0.08 96 1024.6
20220525210012 60 53 10.0 16.0 0.02 0.18 0.07 95 1024.5
20220525204511 60 40 8.0 14.0 0.01 0.17 0.06 95 1024.4
20220525203033 60 74 5.0 11.0 0.00 0.16 0.05 95 1024.6
20220525201517 60 65 7.0 12.0 0.00 0.16 0.05 95 1024.5
20220525200010 61 26 4.0 12.0 0.00 0.16 0.05 95 1024.4
20220525194509 60 67 6.0 14.0 0.00 0.16 0.05 95 1024.5
20220525193009 60 48 8.0 15.0 0.00 0.16 0.05 95 1024.6
20220525191515 60 52 6.0 14.0 0.00 0.16 0.05 95 1024.9
20220525190007 61 74 8.0 19.0 0.00 0.17 0.05 95 1024.8
20220525184507 61 32 10.0 16.0 0.00 0.17 0.05 95 1024.9
20220525183006 60 37 10.0 18.0 0.00 0.17 0.05 95 1025.0
20220525181511 61 67 5.0 16.0 0.00 0.17 0.05 95 1025.1
20220525180004 61 56 9.0 14.0 0.01 0.17 0.05 95 1025.2
20220525174517 60 54 8.0 15.0 0.01 0.17 0.05 95 1025.2
20220525173008 60 51 8.0 19.0 0.02 0.17 0.05 95 1025.3
20220525171504 60 54 9.0 19.0 0.02 0.17 0.05 95 1025.1
20220525170006 60 57 9.0 19.0 0.01 0.26 0.04 95 1025.2
20220525164501 61 59 7.0 18.0 0.01 0.26 0.04 96 1025.3
20220525163059 61 49 5.0 17.0 0.00 0.25 0.03 96 1025.2
20220525161602 61 49 11.0 16.0 0.00 0.25 0.03 95 1025.1
20220525160056 61 71 8.0 17.0 0.00 0.25 0.03 95 1024.9
20220525154609 61 58 11.0 20.0 0.00 0.36 0.03 95 1024.7
20220525153058 62 48 8.0 15.0 0.00 0.36 0.03 95 1024.6
20220525151558 62 61 6.0 17.0 0.00 0.36 0.03 96 1024.6
20220525150059 62 67 9.0 19.0 0.00 0.36 0.03 95 1024.6
20220525144553 62 64 8.0 16.0 0.01 0.37 0.03 96 1024.7
20220525143133 62 25 9.0 17.0 0.01 0.37 0.03 96 1024.6
20220525141557 62 18 8.0 16.0 0.01 0.37 0.03 96 1024.8
20220525140056 61 67 6.0 13.0 0.01 0.37 0.03 96 1024.9
20220525134546 61 49 7.0 15.0 0.00 0.36 0.02 96 1024.7
20220525133058 61 40 5.0 12.0 0.00 0.36 0.02 97 1024.7
20220525131553 61 60 5.0 11.0 0.00 0.36 0.02 96 1024.6
20220525130041 61 39 5.0 12.0 0.00 0.36 0.02 96 1024.3
20220525124552 61 338 4.0 11.0 0.00 0.36 0.02 96 1024.3
20220525123041 61 70 6.0 14.0 0.00 0.36 0.02 97 1024.3
20220525121535 61 355 3.0 9.0 0.00 0.36 0.02 97 1024.1
20220525120032 61 46 4.0 13.0 0.00 0.36 0.02 97 1023.9
20220525114540 61 61 5.0 12.0 0.00 0.36 0.02 97 1023.7
20220525113047 61 355 3.0 10.0 0.01 0.36 0.02 97 1023.5